Location: Unspecified
(38.9917°N, 0.0000°E)
Time: 03:01:56
(UTC+00:00)

Max Valier Satellite - Visible Passes

Search period start: 21 August 2019 00:00
Search period end: 31 August 2019 00:00
Orbit: 491 x 508 km, 97.3° (Epoch: 19 August)

Date Brightness Start Highest point End Pass type
(mag) Time Alt. Az. Time Alt. Az. Time Alt. Az.
21 Aug ? 19:59:15 16° ENE 19:59:37 16° ENE 20:01:55 10° NNE visible
21 Aug ? 21:33:55 26° WNW 21:33:55 26° WNW 21:36:19 10° NW visible
22 Aug ? 21:14:02 43° WNW 21:14:02 43° WNW 21:16:51 10° NNW visible
23 Aug ? 20:54:08 57° N 20:54:08 57° N 20:57:08 10° N visible
24 Aug ? 20:34:15 39° NE 20:34:15 39° NE 20:37:12 10° N visible
25 Aug ? 20:14:21 24° ENE 20:14:21 24° ENE 20:17:01 10° NNE visible
25 Aug ? 21:49:02 16° WNW 21:49:02 16° WNW 21:50:23 10° NW visible
26 Aug ? 19:54:28 14° ENE 19:54:28 14° ENE 19:56:25 10° NE visible
26 Aug ? 21:29:08 25° WNW 21:29:08 25° WNW 21:31:11 10° NNW visible
27 Aug ? 21:09:15 37° NW 21:09:15 37° NW 21:11:39 10° NNW visible
28 Aug ? 20:49:22 40° N 20:49:22 40° N 20:51:52 10° N visible
29 Aug ? 20:29:29 30° NE 20:29:29 30° NE 20:31:52 10° N visible
30 Aug ? 20:09:35 20° NE 20:09:35 20° NE 20:11:38 10° NNE visible
30 Aug ? 21:44:15 15° WNW 21:44:15 15° WNW 21:45:20 10° NW visible
